21 Sep
2006
21 Sep
'06
5:27 p.m.
ISS 1 25544U 98067A 06264.67638889 .00017997 00000-0 11679-3 0 7148 2 25544 051.6356 050.4133 0011971 010.8612 024.2832 15.75999264448386
6667
Age (days ago)
6667
Last active (days ago)
0 comments
1 participants
participants (1)
-
Dave Larsen PhD